Content
SEND FEEDBACK

Daily
Averages
Monthly
Summary
United States of America

CHESTERFIELD, MISSOURI


Home > North America > United States > Missouri
Elevation: 559 feet     Latitude: 38 41N     Longitude: 090 31W

WEATHER
 
SELECT A DAY
Number of Records: 208,446;   Date Range: 1/1/95 - 12/24/14
 
SHARE

PRINT THIS DATA

[ ← Previous Day ]
WEATHER ALMANAC - APRIL 2, 2013
[ Next Day → ]
[ °C ]   °F
Weather ElementAverageHighLow
Temperature40 °F48.2 °F (2:51 pm)30 °F (6:51 am)
Dewpoint16.2 °F21 °F (10:51 pm)12 °F (11:51 am)
Humidity40.3 %64 % (6:51 am)24 % (2:51 pm)
Barometer30.33 in30.38 in (7:51 am)30.29 in (1:51 am)
Wind Speed3.3 mph9.2 mph (1:51 am)
Weather ElementAverage
Visibility10 mi
Wind DirectionESE (96.1 °)

Weather ElementTotal
Precipitation---
Heating Degree Days25.9 (Base 65)
Averaged from 23 records on April 2, 2013
WEATHER CONDITIONS BREAKOUT
WIND DIRECTION BREAKOUT
WEATHER BY HOUR - APRIL 2, 2013
[ °C ]   °F
Local TimeTemperatureDewpointHumidityBarometerVisibilityWind DirectionWind SpeedGust SpeedPrecipitationEventsConditions
1:51 AM35.1 °F18.0 °F50 %30.29 in10.0 miNorth (10°)9.2 mphClear
2:51 AM33.1 °F19.0 °F56 %30.30 in10.0 miNorth (360°)8.1 mphClear
3:51 AM33.1 °F19.0 °F56 %30.31 in10.0 miNorth (360°)6.9 mphClear
4:51 AM30.9 °F19.0 °F61 %30.30 in10.0 miNorth (350°)5.8 mphClear
5:51 AM30.9 °F19.0 °F61 %30.33 in10.0 miCalmClear
6:51 AM30.0 °F19.0 °F64 %30.36 in10.0 miCalmPartly Cloudy
7:51 AM34.0 °F19.0 °F54 %30.38 in10.0 miNNE (20°)3.5 mphScattered Clouds
8:51 AM35.1 °F15.1 °F44 %30.38 in10.0 miNE (40°)6.9 mphPartly Cloudy
9:51 AM36.0 °F14.0 °F41 %30.38 in10.0 miCalmPartly Cloudy
10:51 AM39.0 °F12.9 °F34 %30.38 in10.0 miCalmScattered Clouds
11:51 AM41.0 °F12.0 °F31 %30.37 in10.0 miNorth (10°)6.9 mphScattered Clouds
12:51 PM44.1 °F14.0 °F30 %30.35 in10.0 miVariable3.5 mphScattered Clouds
1:51 PM43.0 °F12.9 °F30 %30.33 in10.0 miEast (90°)3.5 mphMostly Cloudy
2:51 PM48.2 °F12.2 °F24 %30.30 in10.0 miWest (260°)6.9 mphMostly Cloudy
3:51 PM48.0 °F12.9 °F24 %30.31 in10.0 miNorth (350°)5.8 mphMostly Cloudy
4:51 PM48.0 °F15.1 °F27 %30.30 in10.0 miCalmMostly Cloudy
5:51 PM48.0 °F14.0 °F26 %30.30 in10.0 miCalmMostly Cloudy
6:51 PM46.9 °F14.0 °F27 %30.31 in10.0 miCalmMostly Cloudy
7:51 PM45.0 °F15.1 °F30 %30.30 in10.0 miNNW (340°)3.5 mphMostly Cloudy
8:51 PM44.1 °F17.1 °F34 %30.32 in10.0 miCalmPartly Cloudy
9:51 PM43.0 °F19.0 °F38 %30.33 in10.0 miCalmPartly Cloudy
10:51 PM42.1 °F21.0 °F43 %30.33 in10.0 miCalmClear
11:51 PM41.0 °F19.0 °F41 %30.33 in10.0 miNNE (20°)4.6 mphPartly Cloudy
Hourly data recorded from KSTL, located miles away from Chesterfield, Missouri







STORIES FROM OUR PARTNERS